DW5678 Kavala GR current weather conditions

sailwx.info

Wind from 026

Air temperature 10.6° C
Dewpoint 8.3° C

Last reported at 2015-Jan-25 02:45 UTC.
Time now 2015-Jan-25 03:50 UTC

Location: N 40°56' E 024°24'.
View on Google Maps.

See reports from other nearby stations

  
Tides and Currents Weather Stations Pressure Air Temp Water Temp Dewpoint Dewpoint Depression Visibility Wind Speed Wind Dir Waves Ship Positions
date/time (UTC)wind fromknots sea level pressurealtimeterstation pressurevisibilityair tempwater tempwave heightnotes
2015-Jan-25 02:45 026 10.6
2015-Jan-25 02:30 10.6
2015-Jan-25 02:15 009 1 gusting 4 10.6
2015-Jan-25 02:00 033 0 gusting 8 10.6
2015-Jan-25 01:45 024 6 gusting 11 10.0
2015-Jan-25 01:30 359 5 gusting 10 10.0
2015-Jan-25 01:15 032 6 gusting 8 10.0
2015-Jan-25 01:00 086 2 gusting 6 10.0
2015-Jan-25 00:45 064 1 gusting 6 10.0
2015-Jan-25 00:30 043 3 gusting 7 10.0
2015-Jan-25 00:15 024 2 gusting 6 10.0
2015-Jan-25 00:00 042 10.6
2015-Jan-24 23:45 042 10.6
2015-Jan-24 23:30 033 2 gusting 7 10.0
2015-Jan-24 23:15 085 4 gusting 8 10.0
2015-Jan-24 23:00 075 4 gusting 12 9.4
2015-Jan-24 22:45 038 6 gusting 13 9.4
2015-Jan-24 22:30 059 6 gusting 11 10.0
2015-Jan-24 22:15 085 4 gusting 10 10.0
2015-Jan-24 22:00 084 3 gusting 7 10.0
2015-Jan-24 21:45 076 2 gusting 8 10.0
2015-Jan-24 21:30 052 4 gusting 6 10.0
2015-Jan-24 21:15 060 1 gusting 8 10.0
2015-Jan-24 21:00 083 3 gusting 7 10.0
2015-Jan-24 20:45 060 3 gusting 7 10.6
2015-Jan-24 20:30 061 2 gusting 6 10.6
2015-Jan-24 20:15 024 4 gusting 7 10.6
2015-Jan-24 20:00 053 1 gusting 6 10.6
2015-Jan-24 19:45 089 2 gusting 6 10.6
2015-Jan-24 19:30 072 0 gusting 5 10.6
2015-Jan-24 19:15 029 1 gusting 5 10.6
2015-Jan-24 19:00 061 1 gusting 5 10.6
2015-Jan-24 18:45 035 0 gusting 2 10.6
2015-Jan-24 18:30 049 10.6
2015-Jan-24 18:15 052 1 gusting 6 10.0
2015-Jan-24 18:00 051 0 gusting 2 10.0
2015-Jan-24 17:45 053 10.0
2015-Jan-24 17:30 045 2 gusting 6 10.6
2015-Jan-24 17:15 022 1 gusting 4 10.6
2015-Jan-24 17:00 063 1 gusting 5 10.6
2015-Jan-24 16:45 052 10.6
2015-Jan-24 16:30 056 10.6
2015-Jan-24 16:15 044 10.6
2015-Jan-24 16:00 044 0 gusting 2 10.6
2015-Jan-24 15:45 022 0 gusting 2 11.1
2015-Jan-24 15:30 065 11.1
2015-Jan-24 15:15 061 11.1
2015-Jan-24 15:00 058 11.1
2015-Jan-24 14:45 048 0 gusting 4 11.7
2015-Jan-24 14:30 041 0 gusting 2 11.7
2015-Jan-24 14:15 123 0 gusting 2 11.7
2015-Jan-24 14:00 037 0 gusting 2 11.7
2015-Jan-24 13:45 144 1 gusting 4 12.2
2015-Jan-24 13:30 149 0 gusting 4 12.2
2015-Jan-24 13:15 146 1 gusting 4 12.2
2015-Jan-24 13:00 139 1 gusting 4 12.2
2015-Jan-24 12:45 124 0 gusting 2 12.8
2015-Jan-24 12:30 148 1 gusting 2 12.2
2015-Jan-24 12:15 213 0 gusting 4 12.8
2015-Jan-24 12:00 227 0 gusting 2 12.2
2015-Jan-24 11:45 147 0 gusting 2 12.8
2015-Jan-24 11:30 141 12.2
2015-Jan-24 11:15 178 12.2
2015-Jan-24 11:00 225 0 gusting 2 12.8
2015-Jan-24 10:45 209 0 gusting 2 12.2
2015-Jan-24 10:30 144 0 gusting 2 12.2
2015-Jan-24 10:15 111 11.1
2015-Jan-24 10:00 061 10.6
2015-Jan-24 09:45 059 0 gusting 2 11.1
2015-Jan-24 09:30 049 0 gusting 2 10.6
2015-Jan-24 09:15 049 10.0
2015-Jan-24 09:00 014 0 gusting 2 9.4
2015-Jan-24 08:45 342 10.0
2015-Jan-24 08:30 342 9.4
2015-Jan-24 08:15 342 9.4
2015-Jan-24 08:00 342 9.4
2015-Jan-24 07:45 342 8.9
2015-Jan-24 07:30 319 8.9
2015-Jan-24 07:15 022 8.3
2015-Jan-24 07:00 022 8.3
2015-Jan-24 06:45 022 8.3
2015-Jan-24 05:45 026 8.9
2015-Jan-24 05:30 034 0 gusting 2 8.9
2015-Jan-24 05:15 036 0 gusting 4 9.4
2015-Jan-24 05:00 022 9.4
2015-Jan-24 04:45 267 1 gusting 7 9.4
2015-Jan-24 04:30 165 0 gusting 6 9.4
2015-Jan-24 04:15 322 10.0
2015-Jan-24 04:00 323 2 gusting 10 10.0
2015-Jan-24 03:45 037 5 gusting 12 10.0
2015-Jan-24 03:30 067 7 gusting 11 10.6
2015-Jan-24 03:15 054 5 gusting 13 10.6
2015-Jan-24 03:00 025 6 gusting 13 10.6
2015-Jan-24 02:45 014 5 gusting 12 10.6
2015-Jan-24 02:30 043 4 gusting 10 10.6
2015-Jan-24 02:15 056 5 gusting 17 10.6
2015-Jan-24 02:00 030 6 gusting 14 11.1
2015-Jan-24 01:45 051 5 gusting 14 11.1
2015-Jan-24 01:30 067 7 gusting 13 11.1
2015-Jan-24 01:15 046 6 gusting 14 11.1
2015-Jan-24 01:00 041 6 gusting 17 11.1
2015-Jan-24 00:45 029 6 gusting 14 11.1
2015-Jan-24 00:30 057 6 gusting 19 11.1
2015-Jan-24 00:15 064 8 gusting 13 11.1
2015-Jan-24 00:00 038 7 gusting 17 11.1
2015-Jan-23 23:45 061 6 gusting 15 11.7
2015-Jan-23 23:30 105 4 gusting 13 12.2
2015-Jan-23 23:15 017 5 gusting 12 12.2
2015-Jan-23 23:00 094 5 gusting 12 12.2
2015-Jan-23 22:45 075 5 gusting 10 12.2
2015-Jan-23 22:30 042 6 gusting 13 12.2
2015-Jan-23 22:15 025 6 gusting 13 12.2
2015-Jan-23 22:00 072 3 gusting 13 12.2
2015-Jan-23 21:45 068 4 gusting 14 12.2
2015-Jan-23 21:30 042 6 gusting 14 12.2
2015-Jan-23 21:15 046 5 gusting 15 12.2
2015-Jan-23 21:00 064 5 gusting 13 12.8
2015-Jan-23 20:45 093 5 gusting 13 12.8
2015-Jan-23 20:30 036 5 gusting 11 12.2
2015-Jan-23 20:15 040 5 gusting 11 12.8
2015-Jan-23 20:00 100 2 gusting 10 12.8
2015-Jan-23 19:45 023 2 gusting 10 12.8
2015-Jan-23 19:30 053 6 gusting 13 13.3
2015-Jan-23 19:15 110 6 gusting 13 13.3
2015-Jan-23 19:00 059 2 gusting 6 13.9
2015-Jan-23 18:45 046 0 gusting 5 13.9
2015-Jan-23 18:30 099 3 gusting 8 14.4
2015-Jan-23 18:15 095 1 gusting 8 13.9
2015-Jan-23 18:00 203 0 gusting 6 13.9
2015-Jan-23 17:45 215 3 gusting 11 14.4
2015-Jan-23 17:30 188 4 gusting 10 14.4
2015-Jan-23 17:15 232 1 gusting 10 14.4
2015-Jan-23 17:00 203 2 gusting 12 14.4
2015-Jan-23 16:45 246 4 gusting 10 14.4
2015-Jan-23 16:30 222 3 gusting 11 14.4
2015-Jan-23 16:15 142 3 gusting 13 14.4
2015-Jan-23 16:00 186 5 gusting 11 14.4
2015-Jan-23 15:45 229 3 gusting 13 14.4
2015-Jan-23 15:30 193 5 gusting 14 14.4
2015-Jan-23 15:15 223 3 gusting 14 14.4
2015-Jan-23 15:00 173 2 gusting 10 14.4
2015-Jan-23 14:45 257 4 gusting 13 14.4
2015-Jan-23 14:30 210 3 gusting 11 14.4
2015-Jan-23 14:15 248 3 gusting 13 13.9
2015-Jan-23 14:00 048 2 gusting 10 13.3
2015-Jan-23 13:45 023 4 gusting 10 13.3
2015-Jan-23 13:30 058 4 gusting 11 13.3
2015-Jan-23 13:15 046 4 gusting 12 13.3
2015-Jan-23 13:00 065 4 gusting 11 13.3
2015-Jan-23 12:45 071 4 gusting 8 13.3
2015-Jan-23 12:30 100 5 gusting 13 13.3
2015-Jan-23 12:15 029 4 gusting 10 13.3
2015-Jan-23 12:00 063 4 gusting 12 13.3
2015-Jan-23 11:45 080 2 gusting 8 13.3
2015-Jan-23 11:30 096 5 gusting 10 13.3
2015-Jan-23 11:15 103 3 gusting 17 13.3
2015-Jan-23 11:00 053 6 gusting 13 13.3
2015-Jan-23 10:45 024 2 gusting 12 13.3
2015-Jan-23 10:30 099 5 gusting 10 13.3
2015-Jan-23 10:15 055 5 gusting 10 13.3
2015-Jan-23 10:00 089 2 gusting 11 13.3
2015-Jan-23 09:45 036 5 gusting 11 13.3
2015-Jan-23 09:30 109 6 gusting 14 13.3
2015-Jan-23 09:15 131 5 gusting 11 13.3
2015-Jan-23 09:00 105 4 gusting 13 12.8
2015-Jan-23 08:45 065 4 gusting 12 12.8
2015-Jan-23 08:30 044 5 gusting 13 12.8
2015-Jan-23 08:15 069 5 gusting 11 12.8
2015-Jan-23 08:00 052 5 gusting 13 12.8
2015-Jan-23 07:45 066 5 gusting 13 12.8
2015-Jan-23 07:30 047 6 gusting 14 12.8
2015-Jan-23 07:15 060 6 gusting 13 12.8
2015-Jan-23 07:00 028 6 gusting 14 12.8
2015-Jan-23 06:45 098 5 gusting 13 12.8
2015-Jan-23 05:45 040 4 gusting 10 11.7
2015-Jan-23 05:30 077 4 gusting 14 11.7
2015-Jan-23 05:15 046 3 gusting 10 11.7
2015-Jan-23 05:00 117 3 gusting 10 11.7
2015-Jan-23 04:45 048 4 gusting 11 12.2
2015-Jan-23 04:30 073 5 gusting 10 12.2
2015-Jan-23 04:15 062 3 gusting 11 12.2
2015-Jan-23 04:00 109 4 gusting 10 12.2
2015-Jan-23 03:45 134 2 gusting 8 12.2
2015-Jan-23 03:30 075 5 gusting 12 12.2
2015-Jan-23 03:15 061 5 gusting 12 12.2
2015-Jan-23 03:00 036 5 gusting 10 12.2